Starlink 11592

operational
NORAD ID: 63560 Int'l Des: 2025-075 Owner: SPXS Country: US Constellation: starlink
LEOCIRCULAR

About Starlink 11592

Description loading...

Live Position

Loading 3D Globe...

Upcoming Passes

Altitude History

Altitude vs Time

uPlot chart will show altitude changes over time

Two-Line Element Set

1 63560U 25075N 25303.81171889 .00301868 00000-0 22690-2 0 9992
2 63560 43.0002 216.5291 0006809 297.8175 62.2002 15.70848621 32828
Epoch: Oct 30, 2025 • Age: 8 hours

Current Status

Altitude 358.0 km
Velocity 7.70 km/s
Sub-Earth Point 8.21°N, 71.46°W
Launch Date Apr 13, 2025
Age 0.5 years
Type internet

Technical Details

Classification Payload
Mass 960.00 kg
Dry Mass 910.00 kg
Total Mass 960.00 kg
Length 0.30 m
Diameter 4.10 m
Span 29.00 m
Shape Box + pan
Manufacturer SPXS
Bus Type Starlink V2MD
Phase Status In Orbit
Owner/State SPXS/US

Large Constellations

Loading constellations...